Temp_Advection
nan nan nan nan nan nan nan nan nan nan nan nan nan nan nan nan nan nan nan nan nan nan nan nan nan nan nan nan nan nan nan nan nan nan nan nan nan nan nan nan nan nan nan nan nan nan nan
nan 0 -0 -0 -0 1 0 -0 -1 -0 0 -0 1 1 1 0 0 0 0 0 0 0 0 0 0 0 0 -0 0 0 0 0 0 0 0 0 0 0 -0 0 0 -0 -0 0 0 0 nan
nan 0 -0 -0 -0 0 0 -0 -0 0 1 1 1 0 0 0 0 0 -0 -0 -0 -0 0 0 0 1 -1 -0 0 0 0 0 0 0 0 0 0 0 0 -0 -0 0 -0 0 0 -0 nan
nan 0 0 -0 -0 -0 0 -0 1 1 1 1 0 0 0 0 0 -0 -0 -0 0 0 0 0 0 -0 -1 0 1 0 0 1 0 0 0 0 0 0 -0 -0 0 -0 0 -0 -0 -0 nan
nan 0 0 -0 -0 -0 -0 0 1 1 0 0 0 -0 -0 0 -0 -0 -0 -0 0 0 0 0 -0 -0 -0 -0 0 1 1 0 0 0 0 0 0 0 0 -0 0 -0 0 -0 -0 0 nan
nan 1 1 -0 -0 0 1 -0 -0 0 -0 0 0 -0 -0 0 0 1 0 -0 0 0 -0 0 0 -0 -0 0 0 0 1 0 0 0 0 0 0 0 -0 0 0 0 0 0 0 -0 nan
nan 1 1 1 0 0 0 1 1 1 0 0 0 -0 0 1 1 1 0 -0 -0 -0 -0 0 -0 -0 0 1 0 0 0 0 0 -0 -0 0 0 0 0 0 0 -0 0 -0 0 -0 nan
nan 0 0 1 0 0 -0 1 1 0 0 0 0 -0 0 0 0 0 -1 -1 -0 -0 0 0 0 0 0 1 0 0 0 0 -0 0 -0 0 0 0 -0 0 -0 -0 -0 0 -0 0 nan
nan 0 0 -0 1 1 0 0 0 0 0 0 0 0 0 0 0 -0 -1 -0 0 0 0 -0 0 0 0 0 0 0 0 0 0 0 -0 -0 0 0 0 -0 -0 -0 -0 -0 -0 -1 nan
nan 0 0 0 0 1 1 0 0 0 0 0 0 -0 0 0 -0 -0 -0 0 0 -0 -0 0 0 0 0 0 0 0 -0 0 -0 -0 -0 -0 0 0 0 0 0 -0 -0 -0 0 -0 nan
nan 0 0 0 0 0 1 0 0 0 0 0 0 -0 -0 0 -0 0 0 0 -0 -0 0 0 0 0 0 0 -0 0 0 0 -0 0 0 -0 0 0 -0 0 0 -0 -0 0 0 0 nan
nan 1 0 0 0 0 0 0 0 0 0 0 -0 0 -0 -0 0 0 0 0 -0 -0 0 0 0 0 0 -0 0 0 0 0 0 -0 -0 -0 0 0 -0 -0 0 0 -0 -0 0 0 nan
nan 1 0 0 0 0 0 0 0 0 0 0 0 0 0 0 -0 0 0 0 -0 0 -0 0 0 0 -0 -0 0 0 0 -0 -0 -0 -0 -0 0 -0 0 0 0 0 0 0 -0 0 nan
nan 0 0 0 0 0 0 0 0 0 0 0 0 -0 -0 0 -0 -0 0 -0 0 0 0 -0 -0 0 -0 0 0 0 -0 -0 0 0 -0 0 -0 -0 -0 -0 -0 0 -0 0 -0 0 nan
nan -0 0 0 0 0 -0 -0 0 0 -0 0 0 -0 0 0 0 0 -0 -0 0 0 0 0 -0 0 -0 -0 -0 -0 -0 -0 0 -0 0 -0 0 0 0 -0 0 0 0 -0 -0 -0 nan
nan 0 0 -0 0 0 0 -0 0 0 -0 0 0 0 1 0 0 -0 -0 0 0 -0 -0 -0 0 0 0 0 0 0 -0 -0 -0 0 0 -0 -0 0 -0 0 -0 0 -0 0 -0 -0 nan
nan 0 0 -0 -0 0 -0 0 0 -0 0 0 -0 -0 0 0 -0 -0 -0 0 0 -0 -0 -0 0 0 -0 0 0 0 -0 -0 -0 -0 -0 0 -0 0 -0 -0 -0 -0 -0 -0 -0 -0 nan
nan -0 0 0 -0 0 0 -0 0 -0 -0 -0 -0 0 0 -0 -0 -0 0 0 -0 0 -0 -0 -0 -0 -0 0 -0 -0 -0 -0 -0 -0 0 -0 0 -0 -1 0 0 -0 -0 -0 -0 -0 nan
nan -0 -0 0 0 0 0 -0 -0 -0 -0 -0 -0 -0 -0 -0 -0 0 -0 -0 0 -0 0 -0 0 -0 -0 0 -0 -0 -0 -0 0 0 -0 -0 0 -0 0 0 0 0 -0 0 -0 -0 nan
nan -0 -0 0 0 -0 0 -0 -0 -0 -0 -0 -0 -0 -0 -0 0 0 -0 -0 -0 -0 -0 -0 -0 -0 -0 -0 -0 0 0 -0 -0 0 -0 -0 -0 0 -0 -0 -0 0 -0 -0 0 0 nan
nan 0 -0 -0 0 -0 -0 0 -0 -0 -0 -0 -0 -0 -0 -0 0 -0 -0 -0 -0 -0 0 -0 -0 -0 -0 -0 -0 0 -0 0 -0 0 -0 0 0 -0 -0 -0 0 -0 -0 0 -0 -1 nan
nan -0 0 -0 -0 0 -0 -0 -0 -0 -0 -0 -0 0 0 -0 -0 0 0 -0 -0 0 -0 0 0 -0 0 0 -0 -0 -0 -0 -0 -0 0 -0 0 -0 -0 -1 0 -0 -0 -0 -0 0 nan
nan -1 -1 -0 -0 -0 -0 -0 -0 -0 -0 -0 -0 -0 -0 0 0 -0 -0 0 0 -0 0 0 0 -0 -0 0 0 0 -0 -0 -0 -0 -0 0 0 -0 -0 -0 -0 -0 -0 -0 -0 -0 nan
nan -1 -1 -1 -1 -0 -0 -0 -0 -0 -0 -0 -0 -0 -0 -0 -0 -0 0 0 0 0 -0 -0 0 0 -0 -0 -0 0 0 -0 0 -0 0 0 0 0 0 -0 -0 -1 0 0 -0 -0 nan
nan -0 -0 -1 -1 -1 -0 -0 -0 -0 -0 -0 -0 -0 -0 -0 -0 0 0 -0 -0 0 0 -0 -0 0 0 -0 -0 -0 -0 -0 -0 0 0 0 0 0 -0 -0 -1 -0 0 -0 -0 -0 nan
nan -0 -0 -0 -0 -0 -1 -0 0 -0 -0 -0 -0 -0 -0 -0 -0 -0 -0 0 0 -0 -0 -0 0 0 -0 -0 -0 -0 -0 -0 0 -0 -0 0 0 -0 -0 -0 -1 -0 0 0 -0 0 nan
nan 0 0 -0 -0 -0 -0 -1 -0 0 -0 -0 -0 -0 -0 -0 -0 0 0 -0 -0 -0 -0 0 0 0 0 0 0 0 -0 0 0 0 -0 0 0 0 -0 -0 -1 0 0 0 0 -0 nan
nan -0 0 0 -0 -0 -0 -0 -0 -0 0 -0 -0 -0 0 -0 -1 -0 -0 0 0 0 -0 -0 -0 0 -0 0 -0 -0 -0 0 -0 -0 -0 -0 -0 -0 -0 -0 -1 0 -0 -0 -0 -0 nan
nan nan nan nan nan nan nan nan nan nan nan nan nan nan nan nan nan nan nan nan nan nan nan nan nan nan nan nan nan nan nan nan nan nan nan nan nan nan nan nan nan nan nan nan nan nan nan
Wind_Speed
24 25 27 31 35 34 32 30 29 28 27 25 23 20 19 20 16 13 11 11 8 6 6 6 12 17 14 11 9 11 11 15 13 13 10 11 12 9 6 7 6 3 4 1 2 2 5
25 25 25 29 33 36 31 30 29 28 25 23 23 17 19 18 15 13 12 10 8 8 9 7 7 13 16 9 8 6 13 17 10 10 9 7 4 4 8 9 2 5 5 2 0 2 4
26 25 23 26 30 33 30 28 29 28 25 24 22 21 23 23 21 14 14 11 9 9 10 10 21 20 28 10 6 9 15 20 13 10 9 9 9 2 9 5 4 3 2 6 7 0 1
25 25 26 23 27 30 35 30 27 27 23 22 22 20 23 27 29 24 17 17 15 13 12 15 17 16 15 19 17 19 16 18 14 11 12 12 13 10 5 9 4 3 1 2 3 4 2
27 25 25 25 24 26 28 32 28 25 22 20 17 18 22 27 31 33 29 19 20 15 21 22 21 19 9 17 19 21 20 14 14 12 11 8 8 5 4 2 3 1 1 2 5 4 1
31 27 26 24 23 23 24 26 28 25 21 18 17 16 16 21 22 23 27 30 28 27 26 16 10 8 10 11 15 18 13 9 8 11 9 4 3 3 1 1 2 3 2 1 3 5 5
31 30 26 24 23 23 23 23 24 24 20 16 15 14 15 16 16 15 10 14 13 18 34 20 16 23 18 18 16 11 9 10 6 2 3 1 2 3 2 8 6 6 4 2 4 8 3
32 30 29 26 23 22 22 23 21 22 19 14 12 11 9 11 15 18 28 25 24 13 17 23 21 23 17 12 10 11 6 3 2 5 2 2 7 8 6 3 2 1 3 3 5 3 5
33 31 30 28 23 21 21 20 18 19 18 14 9 9 7 9 21 21 25 21 15 12 6 17 15 13 10 8 10 13 9 5 5 4 3 8 6 5 2 1 1 5 3 5 3 8 7
33 33 30 29 24 21 19 18 17 15 15 14 8 7 7 12 9 11 9 9 8 4 4 10 11 10 10 4 6 8 8 4 4 5 7 7 3 3 1 1 1 3 6 3 4 6 2
30 33 32 30 26 21 19 16 15 14 14 11 9 4 7 1 7 4 3 13 8 3 5 7 6 6 7 7 1 6 8 4 8 5 3 3 5 3 3 3 1 5 5 5 5 6 4
30 31 32 31 29 22 17 14 13 13 13 13 8 4 1 4 0 5 9 18 3 3 6 5 4 4 4 10 5 1 2 4 2 1 1 5 3 3 4 3 2 7 5 6 3 2 3
29 31 32 32 31 27 17 13 12 11 9 14 12 5 3 3 5 7 13 5 4 6 2 4 4 5 9 7 6 5 5 6 3 3 3 3 3 3 1 2 1 2 2 1 2 1 4
27 29 31 31 30 28 20 16 14 10 10 11 14 11 8 4 3 5 7 3 9 0 7 2 2 2 5 6 4 4 3 3 4 3 3 2 1 6 8 3 1 1 1 1 3 3 3
25 27 29 29 29 25 22 18 16 8 7 10 13 18 18 12 7 5 4 7 3 1 1 3 4 2 4 4 1 1 4 3 2 1 3 1 3 4 6 2 1 2 1 2 1 4 2
24 26 27 28 28 26 21 19 16 10 4 5 8 9 16 11 9 8 5 5 4 0 2 4 4 3 4 4 2 1 3 2 3 1 1 2 1 3 4 1 2 2 2 1 2 3 4
22 24 26 26 27 26 22 19 16 12 6 3 5 2 10 12 8 9 3 4 4 2 2 3 3 3 4 3 3 3 4 3 3 4 1 1 1 2 4 6 7 3 3 1 2 2 2
20 21 24 24 26 26 23 21 18 14 6 4 4 2 8 7 5 5 3 4 1 1 1 2 3 3 4 3 3 0 3 4 2 4 2 2 3 3 5 5 3 4 3 4 2 0 3
18 19 21 23 23 25 24 21 19 15 9 5 3 4 8 4 3 3 2 3 4 2 1 2 1 2 3 4 3 2 4 3 3 2 5 2 2 4 1 2 3 2 5 3 2 2 5
17 17 19 21 22 23 23 21 19 16 10 4 3 2 4 7 5 3 3 3 1 0 3 4 4 1 3 2 3 4 4 3 2 2 3 3 3 4 4 3 4 5 4 11 6 3 5
17 17 17 19 21 21 21 21 19 16 12 3 3 2 1 2 3 3 3 2 3 2 5 2 3 1 4 3 2 2 3 3 7 6 2 2 4 5 8 14 13 14 13 11 14 13 7
16 16 16 17 18 19 19 19 18 17 11 7 2 0 2 2 2 2 3 3 3 3 3 5 3 4 3 4 2 3 4 2 1 7 3 6 4 6 7 13 8 10 14 16 18 16 20
16 17 16 15 16 17 18 17 16 15 14 7 5 3 1 2 2 2 1 2 1 2 4 4 2 3 6 4 5 13 13 15 12 3 2 3 2 3 5 7 11 7 6 15 11 12 9
15 15 17 16 14 15 15 16 15 14 13 11 8 3 2 1 3 4 1 1 4 6 4 1 3 5 4 9 18 21 22 19 17 14 13 3 2 3 4 7 3 7 3 1 6 11 12
16 15 15 16 15 13 12 13 13 12 11 10 9 5 2 3 1 6 4 6 6 7 5 7 10 9 12 9 4 6 2 3 8 7 8 8 3 3 2 3 10 9 3 2 1 3 5
17 17 14 14 14 14 13 11 12 11 10 8 7 8 3 5 2 4 4 8 4 5 5 8 7 9 2 3 2 3 3 3 1 3 3 4 6 2 2 2 5 2 4 2 2 5 4
17 18 15 13 12 12 14 12 11 11 10 9 6 7 4 4 7 5 4 2 3 6 3 1 4 3 7 2 3 3 4 1 3 3 5 3 4 9 6 5 8 4 9 6 3 5 6
19 18 17 14 13 12 12 14 12 11 11 10 8 6 6 4 16 14 13 11 7 6 3 1 2 3 3 3 3 4 3 2 2 5 4 7 5 5 5 5 9 14 6 6 2 6 3
23 22 18 17 15 14 12 12 14 13 10 11 12 8 8 8 13 25 25 21 18 15 7 5 1 3 2 1 2 2 3 3 4 4 1 4 6 3 7 6 5 16 6 10 4 5 8
Wind_Direction
13 18 16 7 7 11 11 9 9 11 10 11 12 23 22 19 27 20 23 36 42 62 91 104 137 167 147 92 53 154 137 135 143 122 141 153 171 192 166 133 137 257 122 97 321 317 286
15 16 20 14 11 11 17 16 16 15 16 19 19 26 21 23 37 34 26 23 39 82 91 129 144 142 119 70 72 148 146 119 123 122 134 158 160 78 56 119 224 17 79 270 214 304 305
14 13 21 18 15 14 20 20 19 18 26 27 25 27 28 31 29 31 35 43 62 101 111 129 89 102 92 48 69 125 161 126 108 118 111 106 118 60 118 105 97 95 294 199 218 101 17
17 15 16 22 19 22 18 22 24 22 22 34 37 48 50 57 56 54 47 71 79 105 100 139 89 91 71 77 91 111 122 109 98 105 99 106 112 90 76 122 138 197 148 206 88 144 105
17 16 16 18 24 25 20 23 29 32 28 32 41 58 73 70 68 61 62 83 89 93 103 105 110 83 74 80 79 90 92 105 98 98 99 106 104 98 136 203 136 208 162 238 145 162 76
22 18 18 18 19 22 23 23 28 31 33 31 47 68 89 87 71 42 52 73 83 94 92 103 63 55 61 76 99 89 96 118 104 103 86 67 89 142 183 200 83 147 115 186 262 158 190
22 21 20 17 17 15 21 22 27 31 34 33 59 85 98 76 31 14 46 67 64 62 67 71 68 84 90 76 79 80 76 75 94 204 117 178 203 143 119 39 21 6 355 280 300 48 22
19 20 20 19 22 17 16 22 28 32 34 40 65 94 100 37 23 79 96 84 83 105 79 58 71 81 77 57 72 33 33 82 219 86 116 172 75 53 54 51 346 24 285 277 83 165 274
15 23 17 19 19 23 20 19 31 35 36 41 68 104 99 53 103 97 81 77 74 84 69 46 45 41 29 48 48 23 38 26 48 90 4 64 74 119 147 144 265 203 284 11 348 341 275
15 16 20 20 23 21 25 21 22 34 33 45 57 107 103 98 104 88 61 38 14 64 84 8 21 17 15 2 55 28 17 14 30 69 12 71 121 136 115 320 345 291 33 358 321 34 292
13 13 20 18 20 20 20 23 12 25 30 29 59 99 138 319 148 350 344 353 15 103 66 347 355 349 353 65 77 21 13 42 47 64 289 74 146 175 213 47 302 64 351 301 294 298 323
14 15 14 19 14 15 15 19 16 8 28 27 30 69 140 160 51 296 319 334 34 47 50 17 330 323 76 71 57 335 43 55 80 360 27 99 57 338 357 16 316 340 305 266 226 219 267
11 15 13 18 15 13 20 24 25 6 12 28 31 45 92 198 262 256 308 344 47 52 201 14 358 355 63 50 63 27 47 50 38 72 37 326 175 129 236 183 116 251 307 252 259 275 234
11 14 16 16 17 18 25 31 21 35 33 38 42 49 52 21 304 301 335 26 54 1 67 214 270 316 63 10 62 57 68 67 56 48 96 329 210 184 164 261 167 184 15 81 279 345 321
10 12 14 17 17 15 20 17 23 44 61 57 39 45 37 33 37 33 63 55 90 62 65 346 302 33 118 107 328 317 67 76 63 49 341 252 127 101 189 52 310 191 139 3 3 219 272
9 9 14 14 15 15 14 16 16 26 53 5 11 34 23 25 31 58 60 105 116 311 310 253 21 27 43 43 1 120 127 87 114 120 326 26 261 158 114 91 277 336 123 178 149 276 270
7 8 9 13 13 14 12 11 12 12 21 10 6 6 9 11 35 51 67 75 112 151 250 320 16 55 79 53 42 33 55 121 138 118 47 326 251 147 144 200 169 172 184 168 304 241 283
4 7 4 10 10 12 13 9 11 12 3 22 50 49 5 37 51 34 31 9 338 89 223 288 294 307 354 352 331 74 29 65 85 154 290 85 306 280 237 98 25 140 122 162 244 201 255
1 2 3 3 8 9 11 12 8 12 20 29 44 356 7 35 75 83 138 84 337 295 5 312 310 15 358 341 309 43 22 109 154 250 356 67 249 312 151 88 143 240 176 187 288 357 233
354 0 0 359 4 7 10 10 12 9 15 51 52 21 18 47 23 99 154 104 99 202 308 323 316 312 281 243 136 331 344 129 164 270 11 334 277 245 233 302 336 243 184 190 182 200 255
344 357 357 357 357 3 7 9 11 15 9 43 72 77 3 348 58 43 310 174 166 168 204 233 226 216 353 300 278 193 38 277 179 174 200 234 270 297 276 278 279 278 267 214 206 209 235
334 344 351 355 354 357 3 7 10 11 15 40 40 285 71 70 315 245 158 229 228 148 211 152 230 357 301 286 337 298 357 306 338 167 223 182 263 304 281 268 240 264 253 244 240 226 236
326 333 341 349 352 352 355 3 8 12 17 36 35 60 27 161 171 300 215 100 252 337 200 260 246 281 264 274 237 263 271 273 275 261 269 207 242 351 268 346 309 288 235 237 241 238 240
319 326 331 339 348 348 349 354 1 11 22 26 17 12 332 254 229 213 157 249 234 233 299 303 266 274 352 317 302 275 253 254 255 251 225 273 257 213 273 320 320 238 123 323 221 256 227
311 316 323 329 342 346 342 346 352 1 13 23 19 10 7 283 321 293 226 239 264 248 223 249 268 266 291 319 295 307 192 226 222 204 219 202 244 271 236 260 269 292 186 214 261 307 37
302 305 308 316 329 336 338 337 342 348 354 10 20 11 341 315 214 264 312 246 257 238 229 206 230 257 303 277 301 275 266 332 213 147 343 230 213 274 308 226 259 213 172 171 70 266 123
290 296 298 301 310 321 326 326 331 336 337 342 2 354 349 287 282 250 204 234 241 305 300 147 174 187 172 207 221 240 251 63 260 244 170 186 221 223 234 262 278 181 149 149 154 233 150
281 285 289 285 297 307 312 317 315 323 327 324 328 338 336 274 282 269 257 247 244 236 279 12 336 245 183 219 211 244 212 230 304 253 197 185 183 195 192 227 259 140 114 181 175 159 146
271 277 277 275 285 293 296 300 308 309 313 314 306 311 306 286 271 289 280 264 244 233 257 234 310 319 290 258 303 315 263 218 216 265 359 271 216 237 195 220 179 193 222 205 224 248 286
Height
1519 1515 1510 1506 1499 1492 1487 1481 1475 1469 1464 1459 1456 1452 1448 1445 1442 1441 1442 1442 1441 1441 1442 1444 1448 1451 1452 1458 1467 1469 1471 1474 1478 1481 1485 1488 1491 1491 1492 1494 1500 1501 1501 1503 1506 1508 1510
1519 1515 1511 1507 1501 1495 1489 1484 1478 1473 1467 1463 1459 1455 1452 1449 1446 1445 1445 1446 1446 1445 1446 1448 1451 1452 1458 1465 1470 1471 1473 1476 1482 1484 1487 1489 1490 1492 1492 1497 1500 1501 1502 1505 1506 1508 1509
1521 1517 1512 1508 1504 1499 1492 1487 1481 1476 1471 1466 1463 1460 1456 1453 1450 1448 1448 1448 1449 1450 1451 1454 1455 1455 1457 1474 1473 1473 1474 1479 1485 1487 1488 1490 1491 1494 1496 1501 1503 1504 1505 1504 1504 1506 1508
1522 1518 1513 1509 1506 1502 1496 1489 1484 1480 1476 1470 1466 1464 1461 1459 1456 1454 1452 1452 1453 1454 1456 1459 1461 1463 1473 1478 1477 1476 1479 1484 1488 1490 1491 1493 1494 1496 1499 1503 1504 1503 1504 1505 1506 1507 1509
1524 1520 1515 1510 1508 1504 1499 1493 1487 1483 1480 1476 1471 1468 1468 1466 1463 1462 1458 1457 1460 1460 1462 1463 1469 1472 1480 1483 1483 1484 1486 1489 1492 1493 1494 1495 1496 1499 1501 1501 1503 1502 1506 1500 1508 1507 1506
1526 1521 1517 1512 1510 1506 1501 1497 1492 1489 1485 1481 1477 1475 1472 1471 1470 1468 1466 1465 1467 1468 1469 1473 1475 1479 1487 1491 1490 1490 1491 1494 1494 1494 1496 1496 1497 1499 1499 1502 1508 1499 1504 1501 1502 1506 1507
1529 1523 1518 1515 1512 1507 1503 1499 1495 1491 1488 1485 1483 1480 1479 1477 1476 1475 1474 1472 1475 1479 1478 1484 1487 1488 1492 1495 1495 1495 1494 1494 1495 1496 1496 1498 1500 1504 1500 1502 1502 1502 1502 1501 1500 1503 1506
1531 1526 1520 1516 1512 1510 1505 1501 1496 1494 1491 1489 1487 1485 1483 1482 1481 1479 1477 1474 1478 1485 1488 1492 1493 1494 1497 1496 1497 1497 1496 1497 1496 1498 1498 1500 1502 1503 1505 1506 1506 1505 1504 1503 1504 1504 1504
1532 1528 1523 1518 1514 1510 1507 1503 1499 1497 1494 1491 1489 1488 1487 1486 1485 1485 1482 1483 1485 1485 1489 1497 1498 1497 1499 1501 1500 1500 1499 1497 1497 1498 1497 1499 1507 1507 1507 1508 1505 1503 1504 1505 1509 1505 1498
1534 1529 1525 1521 1516 1511 1507 1505 1502 1499 1496 1493 1491 1490 1490 1490 1492 1487 1487 1487 1487 1487 1494 1508 1503 1505 1504 1502 1504 1504 1503 1504 1501 1503 1502 1505 1510 1509 1509 1507 1508 1506 1507 1507 1507 1515 1523
1536 1531 1527 1522 1518 1513 1509 1505 1503 1501 1498 1496 1493 1491 1490 1490 1491 1491 1491 1489 1487 1488 1505 1513 1511 1508 1506 1505 1509 1508 1506 1504 1504 1505 1506 1510 1510 1510 1507 1506 1508 1510 1509 1509 1508 1510 1516
1538 1533 1528 1523 1518 1514 1510 1507 1504 1502 1500 1497 1495 1493 1493 1494 1493 1492 1489 1489 1489 1494 1519 1516 1513 1509 1507 1506 1507 1508 1508 1508 1508 1505 1505 1507 1509 1509 1507 1508 1509 1509 1508 1506 1505 1509 1523
1540 1535 1530 1525 1519 1514 1510 1507 1504 1503 1501 1499 1497 1495 1495 1495 1494 1492 1491 1490 1495 1509 1519 1516 1514 1507 1506 1506 1506 1507 1507 1507 1509 1513 1514 1509 1506 1508 1510 1509 1510 1509 1508 1523 1506 1514 1517
1541 1536 1531 1526 1521 1516 1512 1509 1506 1503 1503 1501 1499 1497 1497 1496 1495 1494 1492 1492 1506 1515 1513 1514 1512 1507 1509 1508 1508 1508 1507 1510 1512 1510 1512 1511 1512 1507 1507 1506 1506 1509 1509 1511 1509 1508 1502
1542 1538 1533 1528 1524 1519 1515 1512 1508 1506 1504 1503 1502 1500 1499 1498 1496 1495 1495 1505 1519 1513 1513 1511 1510 1507 1507 1508 1510 1507 1508 1510 1513 1513 1512 1510 1505 1504 1506 1505 1507 1511 1512 1510 1518 1510 1508
1544 1539 1535 1530 1526 1521 1517 1514 1511 1508 1506 1506 1505 1503 1503 1501 1498 1496 1498 1509 1513 1514 1513 1512 1509 1507 1507 1509 1508 1507 1505 1510 1513 1514 1514 1512 1508 1501 1506 1507 1508 1507 1511 1513 1515 1514 1501
1545 1541 1537 1532 1528 1523 1519 1516 1512 1510 1507 1506 1506 1506 1504 1503 1501 1501 1508 1510 1512 1514 1514 1512 1507 1506 1506 1508 1508 1506 1507 1511 1511 1515 1515 1514 1511 1505 1505 1505 1502 1510 1509 1513 1514 1509 1503
1546 1542 1538 1534 1529 1526 1521 1518 1514 1511 1508 1507 1507 1509 1507 1504 1505 1506 1513 1512 1513 1514 1515 1512 1514 1510 1507 1507 1506 1505 1506 1507 1509 1510 1510 1510 1509 1515 1499 1491 1491 1494 1500 1507 1509 1503 1501
1546 1543 1540 1535 1531 1527 1523 1519 1516 1512 1509 1508 1509 1508 1508 1505 1509 1512 1516 1517 1517 1515 1514 1512 1511 1511 1510 1508 1509 1506 1506 1510 1510 1510 1510 1509 1509 1516 1498 1497 1496 1499 1499 1504 1506 1505 1506
1546 1543 1541 1537 1532 1529 1525 1521 1517 1514 1511 1510 1511 1514 1510 1509 1511 1510 1511 1513 1515 1517 1516 1516 1513 1512 1508 1506 1507 1508 1506 1507 1508 1509 1511 1512 1508 1506 1514 1495 1494 1495 1492 1499 1503 1506 1492
1545 1543 1541 1538 1534 1529 1526 1523 1520 1516 1514 1513 1512 1514 1515 1514 1513 1514 1515 1513 1512 1512 1515 1514 1511 1512 1511 1508 1503 1503 1504 1503 1504 1507 1509 1509 1509 1505 1500 1492 1491 1490 1488 1488 1492 1488 1486
1544 1542 1540 1538 1535 1531 1527 1524 1521 1518 1515 1515 1515 1515 1514 1515 1516 1514 1515 1514 1512 1511 1512 1510 1512 1510 1511 1511 1509 1508 1507 1503 1502 1504 1504 1503 1509 1501 1499 1484 1483 1484 1477 1475 1474 1477 1479
1544 1541 1539 1537 1534 1532 1529 1526 1522 1520 1518 1516 1516 1516 1516 1514 1514 1516 1511 1510 1512 1515 1511 1511 1510 1510 1508 1507 1507 1507 1506 1505 1504 1503 1501 1501 1503 1507 1502 1485 1484 1484 1464 1461 1463 1464 1464
1542 1540 1538 1536 1533 1531 1529 1528 1524 1521 1519 1519 1519 1518 1517 1515 1514 1511 1513 1513 1512 1513 1514 1512 1513 1512 1511 1508 1505 1500 1499 1500 1501 1499 1499 1501 1501 1505 1507 1496 1505 1460 1455 1454 1457 1453 1452
1540 1538 1538 1535 1533 1531 1528 1527 1526 1524 1520 1519 1519 1519 1518 1516 1513 1512 1511 1511 1511 1511 1512 1511 1510 1510 1508 1507 1504 1497 1494 1494 1489 1492 1495 1498 1503 1507 1509 1502 1474 1455 1455 1455 1455 1452 1449
1536 1536 1535 1534 1533 1531 1528 1526 1525 1525 1523 1518 1518 1520 1519 1519 1511 1512 1512 1511 1511 1507 1505 1504 1505 1506 1508 1508 1506 1504 1501 1487 1491 1497 1496 1496 1500 1506 1494 1498 1480 1451 1452 1453 1454 1461 1448
1532 1532 1532 1531 1531 1529 1528 1526 1524 1523 1523 1521 1516 1516 1518 1518 1512 1510 1510 1511 1511 1509 1507 1504 1504 1503 1503 1504 1508 1505 1504 1490 1495 1487 1501 1502 1503 1503 1502 1495 1468 1446 1448 1452 1460 1455 1445
1528 1528 1528 1528 1528 1527 1526 1525 1523 1520 1521 1522 1518 1512 1515 1515 1509 1508 1508 1509 1508 1509 1508 1507 1507 1505 1505 1504 1500 1496 1494 1490 1492 1483 1480 1487 1491 1492 1488 1486 1476 1445 1450 1453 1444 1442 1444
1524 1523 1524 1524 1523 1524 1523 1523 1522 1520 1518 1519 1519 1514 1508 1509 1507 1505 1505 1505 1506 1506 1507 1505 1504 1504 1502 1503 1498 1494 1493 1489 1486 1490 1474 1483 1470 1469 1466 1458 1443 1442 1440 1440 1440 1441 1442